| time (UTC) | temp F | wind direction | speed knots | gust knots | rain 1hr in | rain 24hr in | rain mn in | humidity % | barometer mb |
| 20260502181545 | 72 | 33 | 2.6 | 8.7 | 0.00 | 1.00 | 0.00 | 61 | 1020.4 |
| 20260502181028 | 71 | 130 | 4.3 | 13.9 | 0.00 | 1.00 | 0.00 | 59 | 1020.6 |
| 20260502180526 | 70 | 81 | 5.2 | 13.9 | 0.00 | 1.00 | 0.00 | 60 | 1020.5 |
| 20260502164026 | 67 | 342 | 7.0 | 13.9 | 0.00 | 1.77 | 0.00 | 68 | 1020.6 |
| 20260502163526 | 67 | 360 | 5.2 | 13.9 | 0.00 | 1.77 | 0.00 | 70 | 1020.7 |
| 20260502163041 | 66 | 77 | 6.1 | 14.8 | 0.00 | 1.77 | 0.00 | 68 | 1020.7 |
| 20260502162529 | 66 | 110 | 6.1 | 14.8 | 0.00 | 1.77 | 0.00 | 68 | 1020.6 |
| 20260502162026 | 66 | 11 | 7.8 | 14.8 | 0.00 | 1.77 | 0.00 | 68 | 1020.7 |
| 20260502161540 | 67 | 42 | 3.5 | 13.9 | 0.00 | 1.77 | 0.00 | 72 | 1020.4 |
| 20260502161026 | 66 | 360 | 7.0 | 13.9 | 0.00 | 1.77 | 0.00 | 70 | 1020.5 |
| 20260502160526 | 66 | 36 | 5.2 | 13.0 | 0.00 | 1.77 | 0.00 | 69 | 1020.3 |
| 20260502152026 | 65 | 33 | 3.5 | 12.2 | 0.00 | 1.80 | 0.00 | 78 | 1020.5 |
| 20260502151607 | 64 | 351 | 4.3 | 12.2 | 0.00 | 1.80 | 0.00 | 77 | 1020.4 |
| 20260502151026 | 64 | 360 | 6.1 | 12.2 | 0.00 | 1.80 | 0.00 | 77 | 1020.4 |
| 20260502150526 | 64 | 17 | 6.1 | 12.2 | 0.00 | 1.80 | 0.00 | 78 | 1020.4 |
| 20260502130530 | 57 | 106 | 3.5 | 9.6 | 0.00 | 1.98 | 0.00 | 90 | 1019.4 |
| 20260502123529 | 56 | 40 | 2.6 | 9.6 | 0.00 | 2.13 | 0.00 | 92 | 1018.9 |
| 20260502123044 | 56 | 360 | 3.5 | 9.6 | 0.00 | 2.13 | 0.00 | 91 | 1018.7 |
| 20260502122526 | 56 | 323 | 2.6 | 9.6 | 0.00 | 2.13 | 0.00 | 92 | 1018.8 |
| 20260502122034 | 55 | 42 | 2.6 | 7.8 | 0.00 | 2.13 | 0.00 | 92 | 1018.7 |
| 20260502121541 | 55 | 68 | 4.3 | 7.8 | 0.00 | 2.13 | 0.00 | 91 | 1018.6 |
| 20260502121030 | 55 | 355 | 3.5 | 8.7 | 0.00 | 2.13 | 0.00 | 92 | 1018.4 |
| 20260502120529 | 55 | 44 | 2.6 | 8.7 | 0.00 | 2.13 | 0.00 | 91 | 1018.4 |
| 20260502115529 | 55 | 43 | 4.3 | 8.7 | 0.00 | 2.13 | 0.00 | 91 | 1018.2 |
| 20260502115030 | 55 | 35 | 3.5 | 8.7 | 0.00 | 2.13 | 0.00 | 91 | 1018.2 |
| 20260502114545 | 55 | 350 | 3.5 | 9.6 | 0.00 | 2.13 | 0.00 | 91 | 1018.1 |
| 20260502114029 | 55 | 57 | 3.5 | 9.6 | 0.00 | 2.13 | 0.00 | 91 | 1018.1 |
| 20260502113533 | 55 | 355 | 5.2 | 9.6 | 0.00 | 2.13 | 0.00 | 91 | 1018.0 |
| 20260502113050 | 55 | 37 | 3.5 | 9.6 | 0.00 | 2.13 | 0.00 | 92 | 1018.0 |
| 20260502112529 | 55 | 62 | 4.3 | 9.6 | 0.00 | 2.13 | 0.00 | 92 | 1017.8 |
| 20260502112031 | 55 | 352 | 3.5 | 9.6 | 0.00 | 2.13 | 0.00 | 92 | 1017.7 |
| 20260502111541 | 55 | 360 | 3.5 | 7.8 | 0.00 | 2.13 | 0.00 | 92 | 1017.7 |
| 20260502111029 | 55 | 324 | 2.6 | 7.0 | 0.00 | 2.13 | 0.00 | 92 | 1017.6 |
| 20260502110529 | 55 | 329 | 2.6 | 7.0 | 0.00 | 2.13 | 0.00 | 91 | 1017.7 |
| 20260502110046 | 55 | 343 | 2.6 | 7.0 | 0.00 | 2.13 | 0.00 | 91 | 1017.6 |
| 20260502105527 | 55 | 38 | 1.7 | 4.3 | 0.00 | 2.13 | 0.00 | 91 | 1017.5 |
| 20260502105029 | 55 | 360 | 1.7 | 4.3 | 0.00 | 2.13 | 0.00 | 91 | 1017.6 |
| 20260502104544 | 56 | 35 | 0.9 | 5.2 | 0.00 | 2.13 | 0.00 | 91 | 1017.5 |
| 20260502104027 | 56 | 43 | 2.6 | 5.2 | 0.00 | 2.13 | 0.00 | 89 | 1017.4 |
| 20260502103532 | 56 | 38 | 1.7 | 5.2 | 0.00 | 2.13 | 0.00 | 89 | 1017.3 |
| 20260502103044 | 56 | 342 | 1.7 | 7.0 | 0.00 | 2.13 | 0.00 | 89 | 1017.1 |
| 20260502102531 | 56 | 51 | 1.7 | 7.0 | 0.00 | 2.13 | 0.00 | 89 | 1016.9 |
| 20260502102030 | 56 | 41 | 1.7 | 5.2 | 0.00 | 2.13 | 0.00 | 89 | 1016.8 |
| 20260502101603 | 56 | 42 | 2.6 | 7.8 | 0.00 | 2.13 | 0.00 | 89 | 1016.8 |
| 20260502101029 | 56 | 59 | 2.6 | 8.7 | 0.00 | 2.13 | 0.00 | 90 | 1016.7 |
| 20260502100529 | 56 | 35 | 2.6 | 8.7 | 0.00 | 2.13 | 0.00 | 90 | 1016.5 |
| 20260502091027 | 56 | 69 | 2.6 | 9.6 | 0.00 | 2.13 | 0.00 | 92 | 1015.7 |
| 20260502090529 | 56 | 57 | 2.6 | 9.6 | 0.00 | 2.13 | 0.00 | 91 | 1015.8 |
| 20260502071028 | 57 | 59 | 4.3 | 10.4 | 0.00 | 2.13 | 0.00 | 95 | 1015.6 |
| 20260502070529 | 57 | 59 | 2.6 | 12.2 | 0.00 | 2.13 | 0.00 | 95 | 1015.6 |
| 20260502070101 | 57 | 54 | 6.1 | 12.2 | 0.00 | 2.13 | 0.00 | 94 | 1015.4 |
| 20260502065529 | 57 | 350 | 4.3 | 13.0 | 0.00 | 2.13 | 0.00 | 94 | 1015.5 |
| 20260502065032 | 57 | 332 | 6.1 | 13.0 | 0.00 | 2.13 | 0.00 | 94 | 1015.5 |
| 20260502064547 | 57 | 338 | 5.2 | 13.0 | 0.00 | 2.13 | 0.00 | 95 | 1015.5 |
| 20260502064029 | 57 | 72 | 4.3 | 13.0 | 0.00 | 2.13 | 0.00 | 94 | 1015.5 |
| 20260502063529 | 57 | 350 | 4.3 | 11.3 | 0.00 | 2.13 | 0.00 | 94 | 1015.5 |
| 20260502063041 | 57 | 42 | 5.2 | 11.3 | 0.00 | 2.13 | 0.00 | 95 | 1015.5 |
| 20260502062531 | 57 | 36 | 3.5 | 13.9 | 0.00 | 2.13 | 0.00 | 95 | 1015.5 |
| 20260502062028 | 57 | 333 | 4.3 | 13.9 | 0.00 | 2.13 | 0.00 | 95 | 1015.4 |
| 20260502061544 | 57 | 44 | 5.2 | 12.2 | 0.00 | 2.13 | 0.00 | 95 | 1015.5 |
| 20260502061026 | 57 | 49 | 2.6 | 13.9 | 0.00 | 2.13 | 0.00 | 95 | 1015.4 |
| 20260502060527 | 57 | 57 | 7.0 | 15.6 | 0.00 | 2.13 | 0.00 | 95 | 1015.4 |
| 20260502060046 | 57 | 44 | 5.2 | 15.6 | 0.00 | 2.13 | 0.00 | 95 | 1015.5 |
| 20260502055526 | 57 | 350 | 6.1 | 15.6 | 0.00 | 2.13 | 0.00 | 95 | 1015.7 |
| 20260502055026 | 57 | 85 | 7.0 | 13.0 | 0.00 | 2.13 | 0.00 | 95 | 1015.5 |
| 20260502054600 | 57 | 50 | 6.1 | 13.0 | 0.00 | 2.13 | 0.00 | 95 | 1015.5 |
| 20260502054026 | 57 | 304 | 5.2 | 13.9 | 0.00 | 2.13 | 0.00 | 95 | 1015.7 |
| 20260502053526 | 57 | 37 | 5.2 | 13.9 | 0.00 | 2.13 | 0.00 | 95 | 1015.8 |
| 20260502053045 | 57 | 350 | 5.2 | 13.0 | 0.00 | 2.13 | 0.00 | 95 | 1015.8 |
| 20260502052528 | 57 | 78 | 4.3 | 13.0 | 0.00 | 2.13 | 0.00 | 95 | 1015.9 |
| 20260502052032 | 57 | 333 | 7.0 | 13.0 | 0.00 | 2.13 | 0.00 | 95 | 1015.7 |
| 20260502051547 | 57 | 77 | 7.0 | 11.3 | 0.00 | 2.13 | 0.00 | 96 | 1015.6 |
| 20260502051025 | 57 | 49 | 3.5 | 10.4 | 0.00 | 2.13 | 0.00 | 96 | 1015.5 |
| 20260502050528 | 56 | 88 | 4.3 | 15.6 | 0.00 | 2.13 | 0.00 | 96 | 1015.7 |
| 20260502050048 | 56 | 74 | 3.5 | 15.6 | 0.00 | 2.13 | 0.00 | 96 | 1015.7 |
| 20260502045528 | 56 | 56 | 4.3 | 15.6 | 0.00 | 2.15 | 2.13 | 96 | 1015.8 |
| 20260502045028 | 56 | 56 | 3.5 | 11.3 | 0.00 | 2.15 | 2.13 | 96 | 1015.7 |
| 20260502044541 | 56 | 360 | 4.3 | 13.0 | 0.00 | 2.15 | 2.13 | 96 | 1015.8 |
| 20260502044028 | 56 | 38 | 7.8 | 13.0 | 0.00 | 2.15 | 2.13 | 96 | 1015.8 |
| 20260502043529 | 56 | 38 | 4.3 | 8.7 | 0.00 | 2.15 | 2.13 | 96 | 1015.8 |
| 20260502043058 | 57 | 35 | 3.5 | 8.7 | 0.00 | 2.15 | 2.13 | 96 | 1015.7 |
| 20260502042526 | 57 | 42 | 4.3 | 9.6 | 0.00 | 2.15 | 2.13 | 96 | 1015.7 |
| 20260502042026 | 57 | 340 | 3.5 | 12.2 | 0.00 | 2.15 | 2.13 | 96 | 1015.7 |
| 20260502041604 | 57 | 63 | 4.3 | 12.2 | 0.01 | 2.15 | 2.13 | 97 | 1015.6 |
| 20260502041029 | 57 | 47 | 4.3 | 9.6 | 0.02 | 2.15 | 2.13 | 97 | 1015.6 |
| 20260502040526 | 57 | 360 | 4.3 | 12.2 | 0.02 | 2.15 | 2.13 | 97 | 1015.3 |
| 20260502040053 | 57 | 360 | 4.3 | 12.2 | 0.03 | 2.15 | 2.13 | 97 | 1015.6 |
| 20260502035529 | 57 | 38 | 4.3 | 12.2 | 0.03 | 2.17 | 2.13 | 97 | 1015.1 |
| 20260502035028 | 58 | 35 | 4.3 | 13.9 | 0.03 | 2.17 | 2.13 | 97 | 1015.0 |
| 20260502034545 | 57 | 41 | 6.1 | 13.9 | 0.03 | 2.17 | 2.13 | 98 | 1014.9 |
| 20260502034029 | 58 | 338 | 4.3 | 9.6 | 0.04 | 2.17 | 2.13 | 98 | 1014.9 |
| 20260502033529 | 58 | 346 | 2.6 | 11.3 | 0.04 | 2.17 | 2.13 | 98 | 1014.8 |
| 20260502033041 | 58 | 355 | 4.3 | 11.3 | 0.04 | 2.17 | 2.13 | 98 | 1014.5 |
| 20260502032528 | 58 | 48 | 3.5 | 10.4 | 0.04 | 2.17 | 2.13 | 98 | 1014.5 |
| 20260502032029 | 58 | 330 | 2.6 | 11.3 | 0.04 | 2.17 | 2.13 | 98 | 1014.2 |
| 20260502031547 | 58 | 331 | 4.3 | 11.3 | 0.03 | 2.16 | 2.11 | 98 | 1014.1 |
| 20260502031026 | 58 | 344 | 3.5 | 10.4 | 0.02 | 2.15 | 2.10 | 98 | 1013.6 |
| 20260502030529 | 58 | 74 | 4.3 | 10.4 | 0.02 | 2.15 | 2.10 | 98 | 1014.1 |
| 20260502030058 | 58 | 360 | 4.3 | 7.8 | 0.01 | 2.14 | 2.09 | 98 | 1013.8 |
| 20260502025528 | 58 | 53 | 4.3 | 9.6 | 0.01 | 2.14 | 2.09 | 98 | 1013.9 |
| 20260502025029 | 58 | 39 | 4.3 | 8.7 | 0.01 | 2.14 | 2.09 | 98 | 1013.7 |
| 20260502024600 | 59 | 39 | 1.7 | 7.8 | 0.01 | 2.14 | 2.09 | 98 | 1013.9 |
| 20260502024026 | 59 | 44 | 2.6 | 13.9 | 0.00 | 2.13 | 2.08 | 98 | 1014.2 |
| 20260502023527 | 59 | 51 | 3.5 | 13.9 | 0.01 | 2.13 | 2.08 | 98 | 1014.1 |
| 20260502023103 | 59 | 45 | 4.3 | 13.9 | 0.01 | 2.13 | 2.08 | 98 | 1014.0 |
| 20260502022528 | 59 | 355 | 2.6 | 10.4 | 0.02 | 2.13 | 2.08 | 98 | 1013.9 |
| 20260502022028 | 59 | 57 | 4.3 | 8.7 | 0.02 | 2.13 | 2.08 | 98 | 1013.8 |
| 20260502021545 | 59 | 54 | 4.3 | 8.7 | 0.02 | 2.13 | 2.08 | 98 | 1014.0 |
| 20260502021028 | 59 | 40 | 4.3 | 8.7 | 0.03 | 2.13 | 2.08 | 98 | 1013.9 |
| 20260502020526 | 59 | 46 | 1.7 | 11.3 | 0.03 | 2.13 | 2.08 | 98 | 1013.7 |
| 20260502020044 | 59 | 36 | 2.6 | 11.3 | 0.04 | 2.13 | 2.08 | 98 | 1013.6 |
| 20260502015529 | 59 | 38 | 4.3 | 11.3 | 0.06 | 2.25 | 2.08 | 98 | 1013.6 |
| 20260502015027 | 59 | 63 | 2.6 | 7.0 | 0.07 | 2.25 | 2.08 | 98 | 1013.6 |
| 20260502014543 | 59 | 53 | 3.5 | 10.4 | 0.08 | 2.25 | 2.08 | 98 | 1013.5 |
| 20260502014031 | 59 | 53 | 4.3 | 10.4 | 0.11 | 2.25 | 2.08 | 98 | 1013.0 |
| 20260502013526 | 60 | 36 | 4.3 | 8.7 | 0.13 | 2.24 | 2.08 | 98 | 1013.1 |
| 20260502013052 | 60 | 355 | 3.5 | 8.7 | 0.14 | 2.24 | 2.08 | 98 | 1013.0 |
| 20260502012526 | 59 | 42 | 2.6 | 7.8 | 0.13 | 2.23 | 2.07 | 98 | 1013.1 |
| 20260502012026 | 59 | 61 | 2.6 | 7.8 | 0.13 | 2.23 | 2.07 | 98 | 1012.4 |
| 20260502011600 | 60 | 76 | 2.6 | 7.8 | 0.13 | 2.23 | 2.07 | 98 | 1011.8 |
| 20260502011025 | 60 | 65 | 1.7 | 4.3 | 0.12 | 2.22 | 2.06 | 98 | 1011.4 |
| 20260502010526 | 59 | 64 | 1.7 | 8.7 | 0.12 | 2.22 | 2.06 | 98 | 1011.4 |
| 20260502010044 | 59 | 74 | 1.7 | 10.4 | 0.11 | 2.21 | 2.05 | 98 | 1011.5 |
| 20260502005526 | 59 | 36 | 2.6 | 14.8 | 0.10 | 2.19 | 2.03 | 98 | 1011.7 |
| 20260502005030 | 59 | 350 | 6.1 | 14.8 | 0.09 | 2.18 | 2.02 | 98 | 1011.6 |
| 20260502004544 | 60 | 55 | 6.1 | 13.0 | 0.07 | 2.16 | 2.00 | 98 | 1011.5 |
| 20260502004028 | 60 | 360 | 4.3 | 13.9 | 0.05 | 2.13 | 1.97 | 98 | 1011.6 |
| 20260502003527 | 60 | 346 | 7.0 | 16.5 | 0.04 | 2.10 | 1.95 | 98 | 1011.2 |
| 20260502003041 | 60 | 43 | 7.0 | 16.5 | 0.03 | 2.09 | 1.94 | 98 | 1011.0 |
| 20260502002527 | 60 | 346 | 4.3 | 15.6 | 0.03 | 2.09 | 1.94 | 98 | 1011.2 |
| 20260502002026 | 60 | 338 | 6.1 | 15.6 | 0.03 | 2.09 | 1.94 | 98 | 1010.9 |
| 20260502001548 | 60 | 38 | 4.3 | 16.5 | 0.04 | 2.09 | 1.94 | 98 | 1010.4 |
| 20260502001032 | 60 | 56 | 9.6 | 16.5 | 0.05 | 2.09 | 1.94 | 98 | 1010.0 |
| 20260502000525 | 60 | 44 | 5.2 | 13.0 | 0.06 | 2.09 | 1.94 | 98 | 1010.8 |
| 20260502000055 | 61 | 53 | 4.3 | 13.0 | 0.06 | 2.09 | 1.94 | 98 | 1010.8 |
| 20260501235525 | 61 | 55 | 7.0 | 13.0 | 0.06 | 2.08 | 1.93 | 98 | 1011.2 |
| 20260501235026 | 61 | 49 | 5.2 | 12.2 | 0.06 | 2.08 | 1.93 | 98 | 1011.0 |
| 20260501234545 | 61 | 54 | 5.2 | 12.2 | 0.05 | 2.08 | 1.92 | 98 | 1010.6 |
| 20260501234026 | 61 | 38 | 6.1 | 12.2 | 0.05 | 2.08 | 1.92 | 98 | 1010.3 |
| 20260501233525 | 61 | 44 | 6.1 | 12.2 | 0.06 | 2.07 | 1.91 | 98 | 1010.1 |
| 20260501233109 | 62 | 74 | 2.6 | 13.0 | 0.07 | 2.07 | 1.91 | 99 | 1010.0 |
| 20260501232525 | 62 | 51 | 2.6 | 13.0 | 0.08 | 2.07 | 1.91 | 99 | 1009.9 |
| 20260501232025 | 62 | 352 | 5.2 | 12.2 | 0.09 | 2.07 | 1.91 | 99 | 1009.8 |
| 20260501231609 | 62 | 92 | 4.3 | 10.4 | 0.09 | 2.06 | 1.90 | 99 | 1009.6 |
| 20260501231025 | 62 | 38 | 3.5 | 12.2 | 0.10 | 2.05 | 1.89 | 99 | 1009.5 |
| 20260501230525 | 62 | 341 | 3.5 | 12.2 | 0.09 | 2.04 | 1.88 | 99 | 1009.9 |
| 20260501230115 | 62 | 344 | 3.5 | 12.2 | 0.09 | 2.04 | 1.88 | 99 | 1010.0 |
| 20260501225526 | 62 | 38 | 3.5 | 9.6 | 0.09 | 2.03 | 1.87 | 99 | 1010.2 |
| 20260501225026 | 62 | 360 | 2.6 | 9.6 | 0.09 | 2.03 | 1.87 | 99 | 1010.2 |
| 20260501224556 | 62 | 130 | 1.7 | 9.6 | 0.09 | 2.03 | 1.87 | 99 | 1010.3 |
| 20260501224026 | 62 | 96 | 0.9 | 4.3 | 0.09 | 2.02 | 1.86 | 99 | 1010.5 |
| 20260501223526 | 62 | 96 | 0.0 | 3.5 | 0.09 | 2.01 | 1.85 | 99 | 1010.7 |
| 20260501223051 | 62 | 0 | 0.9 | 12.2 | 0.10 | 2.00 | 1.84 | 99 | 1011.1 |
| 20260501222528 | 62 | 56 | 3.5 | 12.2 | 0.10 | 1.99 | 1.83 | 99 | 1011.1 |
| 20260501222026 | 62 | 55 | 3.5 | 11.3 | 0.12 | 1.98 | 1.82 | 99 | 1010.9 |
| 20260501221544 | 62 | 110 | 3.5 | 11.3 | 0.15 | 1.96 | 1.80 | 99 | 1010.9 |
| 20260501221029 | 63 | 82 | 2.6 | 9.6 | 0.17 | 1.95 | 1.79 | 99 | 1010.7 |
| 20260501220526 | 63 | 40 | 4.3 | 9.6 | 0.19 | 1.95 | 1.79 | 99 | 1010.5 |
| 20260501220046 | 62 | 38 | 3.5 | 8.7 | 0.20 | 1.95 | 1.79 | 99 | 1010.6 |
| 20260501215528 | 62 | 88 | 1.7 | 6.1 | 0.20 | 1.94 | 1.78 | 99 | 1010.3 |
| 20260501215028 | 62 | 107 | 2.6 | 7.8 | 0.22 | 1.94 | 1.78 | 99 | 1010.3 |
| 20260501214542 | 63 | 327 | 1.7 | 7.8 | 0.24 | 1.94 | 1.78 | 99 | 1010.2 |
| 20260501214026 | 63 | 320 | 1.7 | 5.2 | 0.24 | 1.93 | 1.77 | 99 | 1010.6 |
| 20260501213526 | 63 | 70 | 0.9 | 5.2 | 0.25 | 1.92 | 1.76 | 99 | 1010.5 |
| 20260501213041 | 63 | 100 | 0.9 | 5.2 | 0.30 | 1.90 | 1.74 | 99 | 1009.4 |
| 20260501212526 | 63 | 154 | 0.9 | 7.0 | 0.35 | 1.89 | 1.73 | 99 | 1010.7 |
| 20260501212027 | 63 | 42 | 1.7 | 7.0 | 0.37 | 1.86 | 1.70 | 99 | 1010.0 |
| 20260501211542 | 63 | 117 | 0.9 | 8.7 | 0.33 | 1.81 | 1.65 | 99 | 1010.7 |
| 20260501211026 | 63 | 55 | 3.5 | 8.7 | 0.30 | 1.78 | 1.62 | 99 | 1010.6 |
| 20260501210529 | 63 | 52 | 1.7 | 9.6 | 0.27 | 1.75 | 1.59 | 99 | 1010.3 |
| 20260501210044 | 63 | 45 | 1.7 | 9.6 | 0.28 | 1.75 | 1.59 | 99 | 1010.2 |
| 20260501205527 | 63 | 360 | 3.5 | 7.0 | 0.29 | 1.74 | 1.58 | 99 | 1010.0 |
| 20260501205028 | 63 | 40 | 0.9 | 7.8 | 0.31 | 1.72 | 1.56 | 99 | 1009.4 |
| 20260501204546 | 63 | 72 | 1.7 | 7.8 | 0.31 | 1.70 | 1.54 | 99 | 1010.1 |
| 20260501204026 | 63 | 333 | 2.6 | 7.8 | 0.32 | 1.69 | 1.53 | 99 | 1010.0 |
| 20260501203526 | 63 | 54 | 1.7 | 7.0 | 0.31 | 1.66 | 1.50 | 99 | 1008.8 |
| 20260501203040 | 63 | 150 | 1.7 | 9.6 | 0.24 | 1.59 | 1.43 | 99 | 1008.7 |
| 20260501202526 | 63 | 77 | 2.6 | 7.8 | 0.20 | 1.54 | 1.38 | 99 | 1010.3 |
| 20260501202029 | 63 | 334 | 1.7 | 8.7 | 0.17 | 1.49 | 1.33 | 99 | 1009.9 |
| 20260501201544 | 63 | 42 | 4.3 | 10.4 | 0.18 | 1.48 | 1.32 | 99 | 1009.4 |
| 20260501201027 | 63 | 355 | 3.5 | 10.4 | 0.18 | 1.48 | 1.32 | 99 | 1008.5 |
| 20260501200532 | 63 | 71 | 1.7 | 7.0 | 0.18 | 1.48 | 1.32 | 99 | 1008.5 |
| 20260501200044 | 64 | 42 | 0.9 | 10.4 | 0.17 | 1.47 | 1.31 | 99 | 1008.2 |
| 20260501195529 | 64 | 89 | 1.7 | 10.4 | 0.13 | 1.43 | 1.27 | 99 | 1009.1 |
| 20260501195029 | 64 | 65 | 3.5 | 10.4 | 0.12 | 1.41 | 1.25 | 99 | 1010.0 |
| 20260501194541 | 64 | 46 | 3.5 | 7.8 | 0.10 | 1.39 | 1.23 | 99 | 1010.3 |
| 20260501194028 | 64 | 321 | 2.6 | 5.2 | 0.07 | 1.36 | 1.20 | 99 | 1010.0 |
| 20260501193530 | 64 | 0 | 0.9 | 4.3 | 0.06 | 1.35 | 1.19 | 99 | 1009.5 |
| 20260501193041 | 64 | 93 | 1.7 | 4.3 | 0.06 | 1.35 | 1.19 | 99 | 1008.8 |
| 20260501192530 | 64 | 82 | 0.9 | 8.7 | 0.05 | 1.34 | 1.17 | 99 | 1009.1 |
| 20260501192031 | 64 | 323 | 2.6 | 8.7 | 0.03 | 1.32 | 1.16 | 99 | 1009.3 |
| 20260501191548 | 64 | 71 | 1.7 | 13.9 | 0.01 | 1.30 | 1.14 | 99 | 1009.6 |
| 20260501191032 | 64 | 82 | 2.6 | 13.9 | 0.01 | 1.30 | 1.14 | 99 | 1010.0 |
| 20260501190529 | 64 | 39 | 5.2 | 13.9 | 0.01 | 1.30 | 1.14 | 99 | 1009.7 |
| 20260501190042 | 64 | 40 | 4.3 | 11.3 | 0.01 | 1.30 | 1.14 | 99 | 1009.8 |
| 20260501185529 | 64 | 52 | 2.6 | 10.4 | 0.01 | 1.30 | 1.14 | 99 | 1010.2 |
| 20260501185029 | 64 | 95 | 4.3 | 10.4 | 0.00 | 1.29 | 1.13 | 99 | 1010.2 |
| 20260501184551 | 64 | 360 | 2.6 | 5.2 | 0.00 | 1.29 | 1.13 | 99 | 1009.9 |
| 20260501184030 | 64 | 51 | 1.7 | 10.4 | 0.00 | 1.29 | 1.13 | 99 | 1009.9 |
| 20260501183529 | 64 | 0 | 3.5 | 12.2 | 0.00 | 1.29 | 1.13 | 99 | 1009.9 |
| 20260501183045 | 64 | 73 | 5.2 | 12.2 | 0.00 | 1.29 | 1.13 | 99 | 1009.7 |
| 20260501182529 | 64 | 47 | 2.6 | 10.4 | 0.00 | 1.29 | 1.13 | 99 | 1009.7 |
| 20260501182033 | 64 | 323 | 3.5 | 7.0 | 0.00 | 1.29 | 1.13 | 99 | 1009.7 |